Location: Lafig�re
(44.4503°N, 4.0357°E)
Time: 15:39:53
(UTC+00:00)

Transit 2A Rocket - Pass Details

Date: 24 January 2021
Orbit: 594 x 908 km, 66.7° (Epoch: 06 March)

Event Time Altitude Azimuth Distance (km) Brightness Sun altitude
Rises 19:36:45 0° 334° (NNW) 2,936 8.4 -31.0°
Enters shadow 19:38:58 - 343° (NNW) 2,108 7.5 -31.4°
Reaches altitude 10° 19:39:19 10° 345° (NNW) 1,990 - -31.5°
Maximum altitude 19:43:14 30° 48° (NE) 1,091 - -32.2°
Drops below altitude 10° 19:47:02 10° 110° (ESE) 1,927 - -32.8°
Sets 19:49:28 0° 121° (ESE) 2,826 - -33.3°
